N3HBJ Weather Reports


Display with metric or nautical units.
time (UTC)temp
F
wind
direction
speed
MPH
gust
MPH
rain 1hr
in
rain 24hr
in
rain mn
in
humidity
%
barometer
mb
20260508230341 54 161 2.0 11.0 0.00 0.07 0.07 68 1011.3
20260508230101 54 172 2.0 8.0 0.00 0.07 0.07 69 1011.3
20260508225341 54 144 2.0 10.0 0.00 0.07 0.07 69 1011.3
20260508224838 54 79 2.0 10.0 0.00 0.07 0.07 70 1011.2
20260508224337 55 195 2.0 9.0 0.00 0.07 0.07 70 1011.2
20260508223836 55 175 3.0 10.0 0.00 0.07 0.07 70 1011.2
20260508223601 55 78 4.0 11.0 0.00 0.07 0.07 70 1011.1
20260508222835 55 89 2.0 11.0 0.00 0.07 0.07 71 1011.2
20260508222335 55 144 2.0 8.0 0.00 0.07 0.07 72 1011.1
20260508221834 55 103 2.0 8.0 0.00 0.07 0.07 72 1011.1
20260508221334 54 118 3.0 9.0 0.00 0.07 0.07 73 1011.2
20260508220834 55 69 4.0 9.0 0.00 0.07 0.07 73 1011.2
20260508220334 55 93 3.0 13.0 0.00 0.07 0.07 73 1011.2
20260508220315 55 59 1.0 13.0 0.00 0.07 0.07 72 1011.3
20260508215334 54 144 1.0 8.0 0.00 0.07 0.07 78 1011.4
20260508214832 54 144 1.0 8.0 0.00 0.07 0.07 76 1011.4
20260508214332 54 273 1.0 4.0 0.00 0.07 0.07 78 1011.5
20260508214052 53 140 1.0 4.0 0.00 0.07 0.07 79 1011.5
20260508213330 53 96 0.0 4.0 0.00 0.07 0.07 80 1011.5
20260508213053 52 58 0.0 3.0 0.01 0.07 0.07 81 1011.5
20260508212547 52 80 0.0 1.0 0.01 0.07 0.07 81 1011.4
20260508211831 52 80 0.0 0.0 0.02 0.07 0.07 82 1011.4
20260508211555 51 80 0.0 0.0 0.02 0.07 0.07 81 1011.4
20260508210830 51 80 0.0 3.0 0.02 0.07 0.07 81 1011.3
20260508210343 51 80 1.0 3.0 0.02 0.07 0.07 80 1011.2
20260508205830 51 80 1.0 3.0 0.02 0.07 0.07 80 1011.3
20260508205330 51 80 0.0 0.0 0.02 0.07 0.07 82 1011.4
20260508204831 51 80 0.0 0.0 0.02 0.07 0.07 81 1011.4
20260508204552 51 80 0.0 0.0 0.02 0.07 0.07 81 1011.6
20260508203830 51 80 0.0 3.0 0.02 0.07 0.07 81 1011.6
20260508203330 51 80 2.0 7.0 0.02 0.07 0.07 79 1011.7
20260508203056 51 80 2.0 7.0 0.01 0.06 0.06 76 1011.7
20260508202328 52 111 2.0 9.0 0.01 0.06 0.06 75 1011.9
20260508201828 53 103 4.0 16.0 0.00 0.05 0.05 71 1012.0
20260508201327 54 110 6.0 18.0 0.00 0.05 0.05 68 1011.9
20260508200825 55 184 5.0 18.0 0.00 0.05 0.05 62 1011.7
20260508200321 56 104 5.0 16.0 0.00 0.05 0.05 61 1011.6
20260508195821 56 45 6.0 20.0 0.00 0.05 0.05 59 1011.5
20260508195541 57 62 5.0 20.0 0.00 0.05 0.05 56 1011.4
20260508194822 58 86 4.0 12.0 0.00 0.05 0.05 52 1011.3
20260508194321 58 157 4.0 10.0 0.00 0.05 0.05 56 1011.3
20260508193822 58 175 4.0 11.0 0.00 0.05 0.05 53 1011.2
20260508193321 58 134 3.0 11.0 0.00 0.05 0.05 55 1011.2
20260508192822 58 52 2.0 6.0 0.00 0.05 0.05 58 1011.3
20260508192322 57 150 1.0 6.0 0.00 0.05 0.05 62 1011.2
20260508191822 57 83 0.0 4.0 0.00 0.05 0.05 61 1011.2
20260508191321 57 134 1.0 9.0 0.00 0.05 0.05 64 1011.2
20260508190821 57 134 1.0 9.0 0.01 0.05 0.05 62 1011.4
20260508190321 57 308 0.0 3.0 0.03 0.05 0.05 65 1011.4
20260508185822 56 308 0.0 0.0 0.03 0.05 0.05 62 1011.4
20260508185542 56 308 0.0 0.0 0.03 0.05 0.05 62 1011.4
20260508184817 56 308 0.0 2.0 0.03 0.05 0.05 60 1011.4
20260508184311 56 308 0.0 2.0 0.03 0.05 0.05 64 1011.3
20260508183812 56 295 0.0 1.0 0.03 0.05 0.05 64 1011.4
20260508183312 56 295 0.0 3.0 0.03 0.05 0.05 63 1011.4
20260508182812 56 296 1.0 5.0 0.03 0.05 0.05 65 1011.5
20260508182311 55 178 1.0 5.0 0.03 0.05 0.05 65 1011.7
20260508182251 55 216 0.0 3.0 0.03 0.05 0.05 69 1011.7
20260508181312 54 265 0.0 4.0 0.03 0.05 0.05 65 1011.7
20260508180810 54 225 1.0 7.0 0.02 0.04 0.04 66 1012.0
20260508180530 55 196 1.0 8.0 0.00 0.02 0.02 60 1012.1
20260508175813 56 277 2.0 8.0 0.00 0.02 0.02 56 1011.9
20260508175530 56 169 2.0 11.0 0.00 0.02 0.02 55 1011.8
20260508174810 56 54 2.0 11.0 0.00 0.02 0.02 57 1011.9
20260508174311 57 88 1.0 5.0 0.00 0.02 0.02 56 1012.0
20260508173809 57 224 2.0 8.0 0.01 0.02 0.02 58 1012.1
20260508173310 57 197 3.0 9.0 0.01 0.02 0.02 58 1012.1
20260508172810 56 147 2.0 9.0 0.01 0.02 0.02 59 1012.2
20260508172309 56 173 3.0 9.0 0.01 0.02 0.02 60 1012.0
20260508171809 55 155 4.0 9.0 0.01 0.02 0.02 64 1012.1
20260508171305 54 139 3.0 10.0 0.01 0.02 0.02 65 1012.2
20260508170759 54 163 2.0 10.0 0.01 0.02 0.02 71 1012.2
20260508170253 53 157 1.0 5.0 0.01 0.02 0.02 74 1012.3
20260508165747 52 131 0.0 3.0 0.01 0.02 0.02 73 1012.4
20260508165242 51 67 1.0 7.0 0.01 0.02 0.02 73 1012.5
20260508164955 51 172 3.0 14.0 0.01 0.02 0.02 70 1012.8
20260508164229 53 82 3.0 14.0 0.01 0.02 0.02 65 1013.0
20260508163723 55 197 3.0 13.0 0.00 0.01 0.01 58 1012.8
20260508163223 55 193 2.0 11.0 0.00 0.01 0.01 52 1012.6
20260508162721 56 139 2.0 11.0 0.00 0.01 0.01 54 1012.5
20260508162221 56 119 3.0 10.0 0.00 0.01 0.01 53 1012.5
20260508161723 56 110 3.0 11.0 0.00 0.01 0.01 53 1012.5
20260508161222 55 86 2.0 11.0 0.00 0.01 0.01 55 1012.5
20260508160722 55 159 2.0 8.0 0.00 0.01 0.01 53 1012.6
20260508160222 55 181 3.0 14.0 0.00 0.01 0.01 55 1012.6
20260508155724 56 187 4.0 14.0 0.00 0.01 0.01 52 1012.7
20260508155221 56 148 3.0 11.0 0.00 0.01 0.01 53 1012.7
20260508154722 56 138 3.0 11.0 0.00 0.01 0.01 55 1012.7
20260508154222 55 264 2.0 11.0 0.00 0.01 0.01 56 1012.7
20260508153722 56 155 2.0 10.0 0.00 0.01 0.01 52 1012.7
20260508153221 56 148 4.0 11.0 0.00 0.01 0.01 54 1012.7
20260508152721 56 189 3.0 11.0 0.00 0.01 0.01 54 1012.8
20260508152222 56 234 3.0 10.0 0.00 0.01 0.01 53 1012.6
20260508151721 56 236 4.0 11.0 0.00 0.01 0.01 53 1012.5
20260508151222 56 187 3.0 11.0 0.00 0.01 0.01 54 1012.5
20260508150942 56 209 5.0 16.0 0.00 0.01 0.01 54 1012.5
20260508150217 56 107 5.0 16.0 0.00 0.01 0.01 53 1012.6
20260508145937 56 92 4.0 15.0 0.00 0.01 0.01 54 1012.6
20260508145218 55 133 5.0 15.0 0.00 0.01 0.01 55 1012.5
20260508144717 55 177 5.0 15.0 0.00 0.01 0.01 55 1012.5
20260508144439 55 232 5.0 15.0 0.00 0.01 0.01 53 1012.5
20260508143718 55 126 5.0 13.0 0.00 0.01 0.01 53 1012.3
20260508143216 55 210 5.0 12.0 0.00 0.01 0.01 53 1012.2
20260508142729 55 150 5.0 14.0 0.00 0.01 0.01 53 1012.3
20260508142216 54 113 6.0 14.0 0.00 0.01 0.01 57 1012.3
20260508141715 54 202 5.0 14.0 0.00 0.01 0.01 55 1012.4
20260508141215 54 142 2.0 10.0 0.00 0.01 0.01 60 1012.4
20260508140944 54 211 2.0 10.0 0.00 0.01 0.01 56 1012.5
20260508140215 53 96 3.0 12.0 0.00 0.01 0.01 56 1012.5
20260508135711 53 197 4.0 13.0 0.00 0.01 0.01 58 1012.5
20260508135212 53 0 4.0 13.0 0.00 0.01 0.01 58 1012.5
20260508134712 52 120 4.0 14.0 0.00 0.01 0.01 59 1012.5
20260508134430 52 82 4.0 14.0 0.00 0.01 0.01 60 1012.7
20260508133711 52 128 3.0 15.0 0.00 0.01 0.01 59 1012.6
20260508133211 51 96 4.0 15.0 0.00 0.01 0.01 60 1012.7
20260508132936 51 67 3.0 15.0 0.00 0.01 0.01 61 1012.7
20260508132212 50 86 2.0 9.0 0.00 0.01 0.01 63 1012.7
20260508131711 50 215 2.0 10.0 0.00 0.01 0.01 64 1012.8
20260508131211 49 162 3.0 12.0 0.00 0.01 0.01 66 1012.9
20260508130711 48 79 3.0 12.0 0.00 0.01 0.01 68 1012.9
20260508130211 48 74 2.0 8.0 0.00 0.01 0.01 69 1012.9
20260508125712 47 156 1.0 8.0 0.00 0.01 0.01 73 1012.9
20260508125213 46 147 0.0 3.0 0.00 0.01 0.01 74 1013.0
20260508124709 44 147 0.0 4.0 0.00 0.01 0.01 79 1013.0
20260508124208 43 117 1.0 4.0 0.00 0.01 0.01 83 1013.0
20260508123710 42 165 0.0 4.0 0.00 0.01 0.01 86 1012.9
20260508123209 41 147 0.0 2.0 0.00 0.01 0.01 90 1012.9
20260508122709 40 147 0.0 0.0 0.00 0.01 0.01 93 1012.8
20260508122208 39 147 0.0 1.0 0.00 0.01 0.01 93 1012.7
20260508121706 38 147 0.0 2.0 0.00 0.01 0.01 94 1012.9
20260508121205 37 147 0.0 2.0 0.00 0.01 0.01 93 1012.9
20260508120705 37 148 0.0 2.0 0.00 0.01 0.01 94 1012.9
20260508120218 36 149 0.0 0.0 0.00 0.01 0.01 94 1012.9
20260508115703 36 149 0.0 0.0 0.00 0.01 0.01 94 1012.8
20260508115203 36 149 0.0 2.0 0.00 0.01 0.01 94 1012.8
20260508114703 36 149 0.0 2.0 0.00 0.01 0.01 94 1012.7
20260508114201 35 149 0.0 0.0 0.00 0.01 0.01 94 1012.7
20260508113701 35 148 0.0 0.0 0.00 0.01 0.01 94 1012.8
20260508113201 35 148 0.0 0.0 0.00 0.01 0.01 94 1012.8
20260508112659 34 149 0.0 0.0 0.00 0.01 0.01 94 1012.9
20260508112159 34 148 0.0 0.0 0.00 0.01 0.01 94 1012.9
20260508111921 33 149 0.0 0.0 0.00 0.01 0.01 94 1013.0
20260508111159 33 149 0.0 0.0 0.00 0.01 0.01 94 1013.0
20260508110702 33 149 0.0 0.0 0.00 0.01 0.01 94 1013.1
20260508110426 33 148 0.0 0.0 0.00 0.01 0.01 93 1013.1
20260508105658 32 149 0.0 0.0 0.00 0.01 0.01 93 1013.1
20260508105416 32 149 0.0 0.0 0.00 0.01 0.01 93 1013.1
20260508104647 32 149 0.0 2.0 0.00 0.01 0.01 93 1013.1
20260508104147 32 148 0.0 2.0 0.00 0.01 0.01 93 1013.1
20260508103644 31 149 0.0 0.0 0.00 0.01 0.01 93 1013.1
20260508103407 31 148 0.0 0.0 0.00 0.01 0.01 93 1013.0
20260508102640 31 148 0.0 0.0 0.00 0.01 0.01 93 1012.9
20260508102402 31 148 0.0 0.0 0.00 0.01 0.01 93 1012.9
20260508101642 31 148 0.0 0.0 0.00 0.01 0.01 93 1012.9
20260508101139 31 149 0.0 0.0 0.00 0.01 0.01 93 1012.9
20260508100844 31 148 0.0 0.0 0.00 0.01 0.01 93 1012.9
20260508100834 31 149 0.0 0.0 0.00 0.01 0.01 93 1013.0
20260508095639 31 149 0.0 0.0 0.00 0.01 0.01 93 1012.9
20260508095404 31 148 0.0 0.0 0.00 0.01 0.01 93 1012.9
20260508094638 30 149 0.0 0.0 0.00 0.01 0.01 93 1012.9
20260508094137 30 148 0.0 0.0 0.00 0.01 0.01 92 1012.7
20260508093637 30 148 0.0 0.0 0.00 0.01 0.01 92 1012.7
20260508093136 30 148 0.0 0.0 0.00 0.01 0.01 92 1012.6
20260508092856 30 148 0.0 0.0 0.00 0.01 0.01 92 1012.7
20260508092136 30 149 0.0 0.0 0.00 0.01 0.01 92 1012.7
20260508091854 30 148 0.0 0.0 0.00 0.01 0.01 92 1012.7
20260508091132 30 148 0.0 0.0 0.00 0.01 0.01 92 1012.7
20260508090636 30 149 0.0 0.0 0.00 0.01 0.01 92 1012.6
20260508090131 30 148 0.0 0.0 0.00 0.01 0.01 92 1012.5
20260508085628 31 148 0.0 0.0 0.00 0.01 0.01 92 1012.7
20260508085129 31 148 0.0 0.0 0.00 0.01 0.01 92 1012.6
20260508084629 31 149 0.0 0.0 0.00 0.01 0.01 92 1012.6
20260508084128 31 149 0.0 0.0 0.00 0.01 0.01 92 1012.6
20260508083626 31 149 0.0 0.0 0.00 0.01 0.01 92 1012.4
20260508083345 31 149 0.0 0.0 0.00 0.01 0.01 92 1012.5
20260508082624 31 148 0.0 0.0 0.00 0.01 0.01 92 1012.5
20260508082124 31 149 0.0 0.0 0.00 0.01 0.01 92 1012.5
20260508081623 31 149 0.0 0.0 0.00 0.01 0.01 92 1012.5
20260508081124 31 149 0.0 0.0 0.00 0.01 0.01 91 1012.5
20260508080622 31 148 0.0 0.0 0.00 0.01 0.01 91 1012.5
20260508080122 31 148 0.0 0.0 0.00 0.01 0.01 91 1012.5
20260508075622 31 149 0.0 0.0 0.01 0.01 0.01 91 1012.5
20260508075348 32 148 0.0 0.0 0.01 0.01 0.01 91 1012.5
20260508074622 32 148 0.0 0.0 0.01 0.01 0.01 91 1012.5
20260508074121 32 148 0.0 0.0 0.01 0.01 0.01 91 1012.5
20260508073844 32 148 0.0 0.0 0.01 0.01 0.01 91 1012.5
20260508073121 32 148 0.0 0.0 0.01 0.01 0.01 91 1012.5
20260508072621 32 149 0.0 0.0 0.01 0.01 0.01 91 1012.5
20260508072120 32 148 0.0 0.0 0.01 0.01 0.01 91 1012.5
20260508071622 33 149 0.0 0.0 0.01 0.01 0.01 91 1012.5
20260508071120 33 148 0.0 0.0 0.01 0.01 0.01 91 1012.5
20260508070620 33 148 0.0 0.0 0.01 0.01 0.01 91 1012.5
20260508070121 33 148 0.0 0.0 0.01 0.01 0.01 91 1012.5
20260508065621 33 148 0.0 0.0 0.00 0.00 0.00 91 1012.5
20260508065604 33 149 0.0 0.0 0.00 0.00 0.00 91 1012.7
20260508064841 33 148 0.0 0.0 0.00 0.00 0.00 91 1012.8
20260508064120 33 149 0.0 0.0 0.00 0.00 0.00 91 1012.9
20260508063632 34 149 0.0 0.0 0.00 0.00 0.00 91 1012.9
20260508063121 34 148 0.0 0.0 0.00 0.00 0.00 91 1012.9
20260508062620 34 149 0.0 0.0 0.00 0.00 0.00 91 1012.8
20260508062118 34 149 0.0 0.0 0.00 0.00 0.00 91 1012.8
20260508061618 34 149 0.0 0.0 0.00 0.00 0.00 91 1012.9
20260508061603 34 149 0.0 0.0 0.00 0.00 0.00 90 1012.9
20260508060852 34 148 0.0 0.0 0.00 0.00 0.00 91 1012.9
20260508060344 35 149 0.0 1.0 0.00 0.00 0.00 90 1012.8
20260508055843 35 149 0.0 1.0 0.00 0.00 0.00 90 1012.9
20260508055118 35 148 0.0 0.0 0.00 0.00 0.00 90 1012.8
20260508054618 35 148 0.0 0.0 0.00 0.00 0.00 90 1012.8
20260508054117 35 149 0.0 0.0 0.00 0.00 0.00 90 1012.9
20260508053618 35 148 0.0 0.0 0.00 0.00 0.00 90 1012.9
20260508053117 35 148 0.0 0.0 0.00 0.00 0.00 90 1012.9
20260508052842 36 148 0.0 0.0 0.00 0.00 0.00 90 1013.1
20260508052119 36 148 0.0 0.0 0.00 0.00 0.00 90 1013.1
20260508051618 36 148 0.0 0.0 0.00 0.00 0.00 90 1013.0
20260508051129 36 148 0.0 0.0 0.00 0.00 0.00 90 1013.0
20260508050616 36 149 0.0 0.0 0.00 0.00 0.00 89 1013.0
20260508050116 37 149 0.0 0.0 0.00 0.00 0.00 90 1013.0
20260508045616 37 148 0.0 0.0 0.00 0.00 0.00 89 1012.9
20260508045114 37 148 0.0 0.0 0.00 0.00 0.00 89 1012.9
20260508044615 37 148 0.0 0.0 0.00 0.00 0.00 89 1012.9
20260508044112 37 148 0.0 0.0 0.00 0.00 0.00 90 1012.9
20260508043610 37 149 0.0 0.0 0.00 0.00 0.00 90 1012.9
20260508043110 37 148 0.0 0.0 0.00 0.00 0.00 89 1012.9
20260508042611 38 148 0.0 0.0 0.00 0.00 0.00 89 1012.9
20260508042110 38 149 0.0 0.0 0.00 0.00 0.00 89 1012.9
20260508041610 38 148 0.0 0.0 0.00 0.00 0.00 89 1012.9
20260508041108 38 148 0.0 0.0 0.00 0.00 0.00 88 1012.9
20260508040608 38 149 0.0 0.0 0.00 0.00 0.00 88 1012.9
20260508040108 38 149 0.0 0.0 0.00 0.00 0.00 88 1012.8
20260508035607 38 149 0.0 0.0 0.00 0.00 0.00 88 1012.8
20260508035107 39 149 0.0 0.0 0.00 0.00 0.00 88 1012.7
20260508034608 39 149 0.0 0.0 0.00 0.00 0.00 88 1012.7
20260508034330 39 149 0.0 0.0 0.00 0.00 0.00 87 1012.7
20260508033606 39 148 0.0 0.0 0.00 0.00 0.00 87 1012.6
20260508033105 40 149 0.0 0.0 0.00 0.00 0.00 86 1012.6
20260508032832 40 149 0.0 0.0 0.00 0.00 0.00 86 1012.5
20260508032101 40 149 0.0 0.0 0.00 0.00 0.00 86 1012.6
20260508031600 41 148 0.0 0.0 0.00 0.00 0.00 85 1012.5
20260508031057 41 148 0.0 0.0 0.00 0.00 0.00 85 1012.5
20260508030556 41 149 0.0 0.0 0.00 0.00 0.00 84 1012.5
20260508030103 42 149 0.0 0.0 0.00 0.00 0.00 84 1012.4
20260508025556 42 148 0.0 0.0 0.00 0.00 0.00 83 1012.4
20260508025043 42 149 0.0 0.0 0.00 0.00 0.00 82 1012.4
20260508024541 43 149 0.0 0.0 0.00 0.00 0.00 82 1012.4
20260508024039 43 148 0.0 0.0 0.00 0.00 0.00 81 1012.3
20260508023537 44 149 0.0 0.0 0.00 0.00 0.00 80 1012.3
20260508023037 44 148 0.0 0.0 0.00 0.00 0.00 79 1012.4
20260508022537 44 149 0.0 0.0 0.00 0.00 0.00 78 1012.4
20260508022037 45 149 0.0 0.0 0.00 0.00 0.00 78 1012.3
20260508021539 45 149 0.0 0.0 0.00 0.00 0.00 77 1012.2
20260508021258 46 149 0.0 3.0 0.00 0.00 0.00 76 1012.2
20260508020536 46 149 0.0 5.0 0.00 0.00 0.00 76 1012.1
20260508020033 46 139 0.0 6.0 0.00 0.00 0.00 75 1012.2
20260508015534 47 350 1.0 6.0 0.00 0.00 0.00 73 1011.9
20260508015034 47 256 1.0 6.0 0.00 0.00 0.00 70 1012.1
20260508014534 48 197 2.0 13.0 0.00 0.00 0.00 68 1012.3
20260508014033 49 146 4.0 18.0 0.00 0.00 0.00 66 1012.5
20260508013535 50 234 3.0 18.0 0.00 0.00 0.00 61 1012.4
20260508013034 49 138 0.0 4.0 0.00 0.00 0.00 57 1011.5
20260508012534 49 161 0.0 1.0 0.00 0.00 0.00 56 1010.8
20260508012027 49 171 0.0 1.0 0.00 0.00 0.00 55 1010.7
20260508011521 49 171 0.0 1.0 0.00 0.00 0.00 55 1010.6
20260508011238 50 172 0.0 0.0 0.00 0.00 0.00 55 1010.5
20260508010521 50 172 0.0 0.0 0.00 0.00 0.00 55 1010.3
20260508010023 51 172 0.0 0.0 0.00 0.00 0.00 52 1010.2
20260508005521 51 172 0.0 0.0 0.00 0.00 0.00 52 1010.1
20260508005239 52 172 0.0 2.0 0.00 0.00 0.00 51 1010.1
20260508004522 52 172 0.0 2.0 0.00 0.00 0.00 50 1010.0
20260508004021 52 140 0.0 1.0 0.00 0.00 0.00 51 1010.0
20260508003741 52 140 0.0 1.0 0.00 0.00 0.00 49 1009.9
20260508003024 52 140 0.0 0.0 0.00 0.00 0.00 49 1009.9
20260508002521 53 140 0.0 0.0 0.00 0.00 0.00 49 1009.8
20260508002022 53 140 0.0 0.0 0.00 0.00 0.00 49 1009.8
20260508001521 54 140 0.0 4.0 0.00 0.00 0.00 47 1009.8
20260508001235 54 181 0.0 2.0 0.00 0.00 0.00 46 1009.7
20260508001225 54 140 0.0 4.0 0.00 0.00 0.00 46 1009.7
20260508000022 54 184 0.0 3.0 0.00 0.00 0.00 46 1009.6
20260507235521 55 142 0.0 5.0 0.00 0.00 0.00 44 1009.6
20260507235021 55 140 0.0 5.0 0.00 0.00 0.00 44 1009.5
20260507234521 55 163 1.0 8.0 0.00 0.00 0.00 44 1009.5
20260507234022 55 152 1.0 8.0 0.00 0.00 0.00 44 1009.4
20260507233744 55 144 0.0 4.0 0.00 0.00 0.00 45 1009.4
20260507233022 56 175 0.0 4.0 0.00 0.00 0.00 43 1009.3
20260507232520 56 221 0.0 3.0 0.00 0.00 0.00 44 1009.2
20260507232019 56 198 0.0 1.0 0.00 0.00 0.00 45 1009.2
20260507231519 56 198 0.0 7.0 0.00 0.00 0.00 44 1009.1
20260507231017 57 208 1.0 7.0 0.00 0.00 0.00 43 1009.0